Tracking 18852 objects as of 23-Nov-2017
HD Live streaming from Space Station
objects crossing your sky now

SL-16 R/B

Track SL-16 R/B now!
10-day predictions
SL-16 R/B is classified as:


NORAD ID: 19650
Int'l Code: 1988-102B
Perigee: 835.0 km
Apogee: 858.7 km
Inclination: 71.0 °
Period: 101.7 minutes
Semi major axis: 7217 km
RCS: 12.1863 m2 (large)
Launch date: November 23, 1988
Source: Commonwealth of Independent States (former USSR) (CIS)
Launch site: TYURATAM MISSILE AND SPACE COMPLEX (TTMTR)

Note: This is a ROCKET BODY
aabbcc
Your satellite tracking list
Your tracking list is empty




NASA's NSSDC Master Catalog

Two Line Element Set (TLE):
1 19650U 88102B   17326.62813178 -.00000112  00000-0 -32613-4 0  9990
2 19650  71.0009  41.9386 0016395 297.3606  62.5848 14.15760711498410
Source of the keplerian elements: AFSPC